Location: Unspecified
(0.0000°N, 0.0000°E)
Time: 00:02:47
(UTC+00:00)

Courier 1B Rocket - All Passes

Search period start: 01 July 2015 00:00
Search period end: 11 July 2015 00:00
Orbit: 920 x 1202 km, 28.2° (Epoch: 29 June)

Date Brightness Start Highest point End Pass type
(mag) Time Alt. Az. Time Alt. Az. Time Alt. Az.
01 Jul - 01:53:32 10° N 01:56:02 12° NNE 01:58:43 10° NE visible
01 Jul - 03:44:12 10° NW 03:50:12 42° NNE 03:56:05 10° E visible
01 Jul - 05:37:36 10° WNW 05:43:37 49° SSW 05:49:40 10° SE visible
01 Jul - 07:34:27 10° SW 07:37:37 14° SSW 07:40:37 10° S daylight
01 Jul - 13:21:28 10° S 13:24:31 13° SSE 13:27:55 10° SE daylight
01 Jul - 15:12:06 10° SW 15:19:05 40° SSE 15:26:21 10° E daylight
01 Jul - 17:05:20 10° WSW 17:13:04 67° NNW 17:20:49 10° NE daylight
01 Jul - 19:01:31 10° WNW 19:07:21 22° NNW 19:12:55 10° NNE visible
02 Jul - 02:43:39 10° NNW 02:49:07 28° NNE 02:54:27 10° E visible
02 Jul - 04:36:20 10° WNW 04:42:40 77° SSW 04:48:55 10° SE visible
02 Jul - 06:31:47 10° WSW 06:36:20 20° SSW 06:40:48 10° SSE daylight
02 Jul - 14:11:38 10° SSW 14:17:42 28° SSE 14:24:09 10° E daylight
02 Jul - 16:04:04 10° WSW 16:11:45 86° SSE 16:19:38 10° ENE daylight
02 Jul - 17:59:03 10° W 18:05:51 31° NNW 18:12:30 10° NNE daylight
02 Jul - 19:59:13 10° NNW 20:00:48 11° NNW 20:02:04 10° N visible
03 Jul - 01:43:18 10° NNW 01:47:52 19° NNE 01:52:25 10° ENE visible
03 Jul - 03:35:17 10° NW 03:41:43 69° NNE 03:47:57 10° ESE visible
03 Jul - 05:29:43 10° W 05:35:12 30° SSW 05:40:36 10° SSE visible
03 Jul - 13:11:32 10° SSW 13:16:16 19° SSE 13:21:23 10° ESE daylight
03 Jul - 15:03:07 10° SW 15:10:28 60° SSE 15:18:09 10° ENE daylight
03 Jul - 16:57:06 10° W 17:04:25 45° NNW 17:11:48 10° NE daylight
03 Jul - 18:54:41 10° NW 18:59:04 15° NNW 19:03:09 10° NNE visible
04 Jul - 00:43:16 10° N 00:46:28 14° NNE 00:49:48 10° NE night (unlit)
04 Jul - 02:34:25 10° NW 02:40:43 45° NNE 02:46:44 10° E visible
04 Jul - 04:28:02 10° WNW 04:34:11 47° SSW 04:40:09 10° SE visible
04 Jul - 06:25:16 10° SW 06:28:08 13° SSW 06:30:47 10° S daylight
04 Jul - 12:12:08 10° S 12:14:46 12° SSE 12:17:43 10° SE daylight
04 Jul - 14:02:27 10° SW 14:09:10 40° SSE 14:16:20 10° E daylight
04 Jul - 15:55:34 10° WSW 16:03:04 65° NNW 16:10:50 10° NE daylight
04 Jul - 17:51:39 10° WNW 17:57:25 22° NNW 18:03:02 10° NNE daylight
05 Jul - 01:33:43 10° NNW 01:39:34 30° NNE 01:45:12 10° E night (unlit)
05 Jul - 03:26:39 10° WNW 03:33:13 75° SSW 03:39:29 10° SE visible
05 Jul - 05:22:21 10° WSW 05:26:52 20° SSW 05:31:11 10° SSE visible
05 Jul - 13:02:05 10° SSW 13:07:52 27° SSE 13:14:06 10° E daylight
05 Jul - 14:54:23 10° WSW 15:01:47 88° SSE 15:09:36 10° ENE daylight
05 Jul - 16:49:17 10° W 16:55:53 30° NNW 17:02:31 10° NNE daylight
05 Jul - 18:49:14 10° NNW 18:50:56 11° NNW 18:52:21 10° N visible
06 Jul - 00:33:12 10° NNW 00:38:17 21° NNE 00:43:15 10° ENE night (unlit)
06 Jul - 02:25:28 10° NW 02:32:14 72° NNE 02:38:36 10° ESE visible
06 Jul - 04:20:08 10° W 04:25:44 30° SSW 04:31:06 10° SSE visible
06 Jul - 12:02:06 10° SSW 12:06:31 18° SSE 12:11:20 10° ESE daylight
06 Jul - 13:53:31 10° SW 14:00:34 60° SSE 14:08:06 10° ENE daylight
06 Jul - 15:47:25 10° W 15:54:28 43° NNW 16:01:45 10° NE daylight
06 Jul - 17:44:54 10° NW 17:49:10 15° NNW 17:53:11 10° NNE daylight
06 Jul - 23:32:56 10° NNW 23:36:49 15° NNE 23:40:45 10° NE night (unlit)
07 Jul - 01:24:29 10° NW 01:31:09 47° NNE 01:37:25 10° ESE night (unlit)
07 Jul - 03:18:19 10° WNW 03:24:42 47° SSW 03:30:44 10° SE visible
07 Jul - 05:15:52 10° SW 05:18:38 13° SSW 05:21:10 10° S visible
07 Jul - 11:02:58 10° S 11:05:05 12° SSE 11:07:31 10° SE daylight
07 Jul - 12:52:56 10° SW 12:59:21 40° SSE 13:06:16 10° E daylight
07 Jul - 14:45:58 10° WSW 14:53:09 63° NNW 15:00:45 10° NE daylight
07 Jul - 16:41:58 10° WNW 16:47:30 21° NNW 16:52:59 10° NNE daylight
07 Jul - 22:33:20 10° N 22:35:11 11° NNE 22:37:14 10° NNE visible
08 Jul - 00:23:40 10° NW 00:29:57 32° NNE 00:35:55 10° E night (unlit)
08 Jul - 02:16:48 10° WNW 02:23:41 73° SSW 02:30:07 10° SE night (unlit)
08 Jul - 04:12:45 10° WSW 04:17:22 20° SSW 04:21:44 10° SSE visible
08 Jul - 11:52:39 10° SSW 11:58:08 26° SSE 12:04:03 10° E daylight
08 Jul - 13:44:51 10° WSW 13:51:55 90° SSE 13:59:31 10° ENE daylight
08 Jul - 15:39:40 10° W 15:45:59 29° NNW 15:52:26 10° NNE daylight
08 Jul - 17:39:48 10° NNW 17:41:04 10° NNW 17:42:03 10° N daylight
08 Jul - 23:23:03 10° NNW 23:28:35 23° NNE 23:34:00 10° ENE night (unlit)
09 Jul - 01:15:31 10° NW 01:22:38 75° NNE 01:29:15 10° ESE night (unlit)
09 Jul - 03:10:23 10° W 03:16:13 30° SSW 03:21:42 10° SSE visible
09 Jul - 10:52:46 10° SSW 10:56:52 17° SSE 11:01:20 10° ESE daylight
09 Jul - 12:44:03 10° SW 12:50:46 61° SSE 12:58:02 10° ENE daylight
09 Jul - 14:37:53 10° W 14:44:35 41° NNW 14:51:38 10° NE daylight
09 Jul - 16:35:21 10° NW 16:39:17 14° NNW 16:43:02 10° N daylight
09 Jul - 22:22:38 10° NNW 22:27:04 17° NNE 22:31:33 10° ENE visible
10 Jul - 00:14:26 10° NW 00:21:29 50° NNE 00:28:05 10° ESE night (unlit)
10 Jul - 02:08:27 10° WNW 02:15:08 46° SSW 02:21:21 10° SE night (unlit)
10 Jul - 04:06:11 10° SW 04:09:08 13° SSW 04:11:47 10° S visible
10 Jul - 09:53:52 10° S 09:55:29 11° SSE 09:57:24 10° SE daylight
10 Jul - 11:43:31 10° SW 11:49:39 40° SSE 11:56:15 10° E daylight
10 Jul - 13:36:29 10° WSW 13:43:19 60° NNW 13:50:39 10° NE daylight
10 Jul - 15:32:28 10° WNW 15:37:38 20° NNW 15:42:49 10° NNE daylight
10 Jul - 21:22:42 10° N 21:25:23 12° NNE 21:28:17 10° NE visible
10 Jul - 23:13:33 10° NW 23:20:13 35° NNE 23:26:34 10° E visible
